Flag for Germany Weather past 2 weeks in Crailsheim, Baden-Württemberg, Germany

Now
43 °F

Passing clouds.


Feels Like: 35 °F
Forecast: 33 / 39 °F
Wind: 17 mph from Southwest

Location: Niederstetten

Current Time: Mar 3, 2015 at 1:09:09 PM

Latest Report: Mar 3, 2015 at 12:20 PM


Visibility: N/A

Pressure: 30.15 "Hg

Humidity: 61%

Dew point: 30 °F

Location of CrailsheimLocation

Historic Weather in Crailsheim — Graph

°F

Crailsheim temperature yesterday

Maximum temperature yesterday: 46 °F (at 4:00 AM)
Minimum temperature yesterday: 32 °F (at 9:50 PM)
Average temperature yesterday: 40 °F

Past Weeks' High & Low Weather Summary

 TemperatureHumidityPressure
High50 °F (Feb 20, 3:20 PM)100% (Feb 16, 11:20 AM)30.69 "Hg (Feb 16, 11:20 AM)
Low21 °F (Feb 19, 11:20 PM)46% (Feb 26, 2:20 PM)29.47 "Hg (Feb 21, 11:20 AM)
Average35 °F85%29.99 "Hg
* Reported Feb 16 11:20 AM — Mar 3 11:20 AM, Crailsheim, Weather by CustomWeather, © 2015

Note: Actual official high and low records may vary slightly from our data, if they occured in-between our weather recording intervals... More about our weather records

Advertising

Crailsheim weather history for previous 24 hours

 ConditionsComfort  
Time TempWeatherWind HumidityBarometerVisibility
11:20 AM
Tue, Mar 3
39 °FPassing clouds.18 mph70%30.15 "HgN/A
10:20 AM37 °FPassing clouds.17 mph70%30.15 "HgN/A
9:20 AM36 °FPassing clouds.12 mph75%30.15 "HgN/A
8:20 AM34 °FPassing clouds.12 mph81%30.15 "HgN/A
7:20 AM32 °FScattered clouds.12 mph87%30.12 "HgN/A
6:20 AM32 °FPassing clouds.14 mph87%30.12 "HgN/A
5:20 AM32 °FPassing clouds.14 mph87%30.12 "HgN/A
4:20 AM32 °FPassing clouds.14 mph87%30.12 "HgN/A
3:20 AM32 °FPassing clouds.15 mph93%30.09 "HgN/A
2:20 AM34 °FPassing clouds.17 mph81%30.09 "HgN/A
1:20 AM34 °FPassing clouds.16 mph81%30.07 "HgN/A
12:20 AM32 °FSnow flurries. Passing clouds.10 mph93%30.07 "HgN/A
11:20 PM
Mon, Mar 2
34 °FPassing clouds.22 mph87%30.01 "HgN/A
10:54 PM34 °FPassing clouds.21 mph93%30.01 "HgN/A
10:20 PM34 °FPassing clouds.16 mph93%29.98 "HgN/A
9:50 PM32 °FPassing clouds.12 mph93%29.95 "HgN/A
9:20 PM34 °FSnow showers. Passing clouds.15 mph87%29.95 "Hg1 mi
9:03 PM34 °FSnow flurries. Passing clouds.13 mph87%29.95 "Hg2 mi
8:20 PM36 °FSnow flurries. Passing clouds.17 mph93%29.89 "Hg4 mi
7:20 PM37 °FPassing clouds.16 mph87%29.86 "HgN/A
6:45 PM36 °FPassing clouds.15 mph93%29.83 "HgN/A
6:20 PM41 °FRain showers. Passing clouds.22 mph70%29.80 "Hg2 mi
5:20 PM43 °FPartly sunny.17 mph61%29.80 "HgN/A
4:20 PM43 °FPartly sunny.16 mph57%29.77 "HgN/A
3:20 PM43 °FBroken clouds.14 mph57%29.74 "HgN/A
2:20 PM43 °FBroken clouds.16 mph57%29.74 "HgN/A
1:20 PM43 °FBroken clouds.18 mph57%29.74 "HgN/A
Weather by CustomWeather, © 2015

See weather overviewHow to use our weather pages